Terminal Aerodrome Forecast
Issued by NWS

Home | Current Version | Previous Version | Text Only | Print | Product List | Glossary On
Versions: 1 2 3 4 5 6 7 8 9 10 11 12 13 14 15 16 17 18 19 20 21 22 23 24
000
FTUS46 KOTX 090521
TAFSFF
TAF
KSFF 090521Z 0906/1006 06007KT 6SM -SN BKN050 OVC090
     FM090900 07003KT 2SM -SN BR OVC025
     FM091100 05002KT 1SM -SN OVC012
     FM091400 08003KT P6SM SCT015 OVC025
     FM091900 06011KT P6SM SCT025 OVC040
     FM100300 04008KT 3SM -SN SCT007 OVC021=

USA.gov is the U.S. government's official web portal to all federal, state and local government web resources and services.